Tracking 28518 objects as of 2-Mar-2024
HD Live streaming from Space Station
objects crossing your sky now

OBJECT AK

Track OBJECT AK now!
10-day predictions


NORAD ID: 58289
Int'l Code: 2023-174AK
Perigee: 482.7 km
Apogee: 498.1 km
Inclination: 97.5 °
Period: 94.3 minutes
Semi major axis: 6861 km
RCS: Unknown
Launch date: November 11, 2023
Source: (TBD)
Launch site: AIR FORCE WESTERN TEST RANGE (AFWTR)
Your satellite tracking list
Your tracking list is empty




NASA's NSSDC Master Catalog

Two Line Element Set (TLE):
1 58289U 23174AK  24061.68514475  .00077461  00000-0  28497-2 0  9999
2 58289  97.4718 138.7407 0011161 247.5495 112.4562 15.27509122 17458
Source of the keplerian elements: AFSPC